Location: Newark
(41.6500°N, 71.4833°W)
Time: 20:52:09
(UTC+00:00)

Courier 1B - Pass Details

Date: 22 January 2020
Orbit: 962 x 1209 km, 28.3° (Epoch: 22 February)

Event Time Altitude Azimuth Distance (km) Brightness Sun altitude
Rises 11:22:53 0° 253° (WSW) 4,041 - -8.4°
Exits shadow 11:23:13 - 252° (WSW) 3,937 10.2 -8.4°
Reaches altitude 10° 11:26:05 10° 242° (WSW) 3,104 9.7 -7.9°
Maximum altitude 11:32:30 29° 186° (S) 2,048 9.4 -6.7°
Drops below altitude 10° 11:38:59 10° 130° (SE) 3,138 11.6 -5.6°
Sets 11:42:15 0° 120° (ESE) 4,092 13.2 -5.0°
